Location: Treviso
(45.6669°N, 12.2430°E)
Time: 00:39:07
(UTC+02:00)

ISS - Pass Details

Date: 26 May 2017
Orbit: 402 x 408 km, 51.6° (Epoch: 30 May)

Event Time Altitude Azimuth Distance (km) Brightness Sun altitude
Rises 00:12:10 0° 277° (W) 2,332 0.3 -22.0°
Reaches altitude 10° 00:14:26 10° 289° (WNW) 1,471 -0.6 -22.1°
Maximum altitude 00:17:22 29° 352° (N) 777 -1.7 -22.2°
Drops below altitude 10° 00:20:19 10° 56° (NE) 1,469 -0.8 -22.3°
Sets 00:22:34 0° 68° (ENE) 2,329 0.2 -22.4°
